Theta_e
330 336 338 340 342 343 344 345 345 346 346 346 346 346 347 347 347 346 347 348 347 345 345 344 342 342 343 343 343 344 343 345 348 348 350 352 355 356 357 358 358 358 359 357 356 364 359 352 354 356 358 357 354 351 351 353 358 358 357 356 359 352 348 351 347 338 333 331 331 331 333 338 349 353 341 340 341 340 339 341 343 346 345 345 348
332 334 337 339 341 343 344 343 346 343 344 345 345 345 346 347 347 347 347 348 347 346 346 345 344 343 343 343 343 343 344 345 344 346 349 353 354 356 357 358 359 359 361 357 360 357 352 353 354 354 356 353 355 357 362 365 354 354 354 351 351 353 349 351 351 335 332 327 328 328 331 332 338 349 343 339 339 339 339 339 341 342 343 343 344
332 334 336 338 340 342 342 342 343 344 344 344 345 345 346 347 347 347 348 348 347 348 346 345 345 347 345 344 345 343 345 347 346 349 353 352 354 356 357 356 358 358 359 362 357 355 354 355 356 354 355 360 353 352 356 354 352 354 353 352 350 349 353 355 349 339 335 336 332 330 323 323 332 332 338 340 338 338 338 337 340 341 342 343 344
330 332 335 337 339 340 340 341 342 343 344 343 344 344 346 347 347 348 348 348 347 349 350 346 347 347 347 347 347 346 344 351 347 350 351 352 352 356 355 356 357 358 359 358 362 357 355 356 356 356 355 358 353 353 351 351 353 353 353 355 350 345 348 347 355 346 340 332 326 329 323 327 323 325 330 336 341 342 338 335 340 340 341 341 344
330 332 334 336 337 338 339 341 342 342 342 343 344 345 346 346 348 348 348 348 347 353 351 348 352 348 349 349 351 349 348 346 346 347 350 352 353 353 356 356 357 359 358 357 362 356 356 355 356 357 355 359 358 354 352 352 354 354 356 353 349 348 348 346 348 351 344 338 335 329 324 323 323 326 331 329 335 340 339 335 340 340 338 339 342
331 332 334 336 337 337 338 340 341 342 342 343 345 346 346 347 348 348 348 348 348 351 350 351 352 347 345 343 341 341 341 342 343 344 348 350 352 355 355 358 359 357 357 357 360 361 356 357 356 355 356 357 355 352 351 353 353 352 353 354 350 352 350 343 344 349 351 352 341 333 331 327 325 328 326 322 331 343 342 340 337 338 335 339 338
332 334 335 336 336 337 338 339 341 341 343 345 345 346 347 348 348 349 348 348 349 352 352 354 349 347 346 344 342 341 341 342 345 348 350 352 354 355 355 357 357 357 358 357 359 361 356 355 356 355 355 353 363 352 354 352 351 351 359 353 353 359 346 344 345 345 343 345 350 349 352 344 333 332 329 330 324 329 334 339 336 338 337 337 338
332 333 335 336 337 337 337 340 341 342 344 345 345 347 346 348 348 348 349 351 350 354 352 352 348 346 345 344 345 342 342 343 346 349 351 355 353 355 355 355 356 357 356 355 358 360 358 355 356 354 355 354 363 356 352 351 355 353 362 358 357 355 350 347 345 345 342 344 350 344 346 349 344 341 333 332 328 326 327 334 336 335 338 337 344
332 333 335 336 336 338 339 340 342 343 344 344 345 347 347 348 349 349 349 350 350 354 353 350 351 347 345 345 345 345 344 345 349 353 351 356 352 352 353 353 354 355 355 356 357 358 362 357 355 355 355 354 365 358 355 355 354 354 354 353 351 352 354 354 346 345 345 344 340 341 339 340 341 344 344 340 332 325 326 329 329 333 333 334 340
333 335 336 337 338 339 340 342 342 343 345 346 347 348 348 348 348 348 348 350 351 353 354 350 350 351 345 345 345 345 348 347 348 348 349 351 350 350 351 351 352 353 354 355 356 358 359 359 355 355 354 357 364 354 353 352 352 354 357 355 355 350 351 353 351 347 347 347 343 342 339 338 336 333 334 335 334 331 328 327 329 330 329 331 336
332 334 336 337 339 340 341 341 342 343 345 346 348 348 349 348 348 348 349 351 353 353 353 350 351 349 346 346 345 345 346 346 345 345 346 347 348 349 349 350 351 354 354 355 356 357 356 359 358 357 356 360 363 353 352 353 355 353 356 358 355 354 352 352 352 352 349 347 345 341 340 339 337 336 333 335 333 331 326 326 330 335 333 331 337
332 334 335 337 338 339 340 341 342 342 344 346 348 348 349 349 349 348 350 351 353 354 353 352 352 350 348 347 346 346 347 347 345 344 346 347 348 348 349 348 349 353 352 353 354 356 356 356 360 358 358 356 356 354 354 355 357 356 353 352 352 354 354 354 349 348 347 347 347 346 343 343 342 339 338 338 336 335 330 329 331 333 334 333 336
331 333 335 336 337 338 339 341 341 342 343 346 348 348 349 349 349 348 350 351 353 354 352 352 352 351 350 348 347 348 348 348 346 345 348 348 347 348 348 348 347 350 350 353 354 354 355 355 354 353 354 357 356 354 355 356 355 354 352 354 353 352 353 352 350 352 349 348 348 348 345 342 341 342 342 344 342 337 334 333 334 336 334 335 336
330 333 335 336 337 338 340 341 342 342 344 346 348 349 349 350 350 349 350 352 353 353 352 351 352 353 352 350 348 351 349 349 347 346 349 348 348 348 349 349 349 351 352 352 354 355 355 357 357 355 354 355 356 355 354 357 355 353 354 351 353 351 353 353 352 354 351 352 350 348 347 345 341 342 344 340 340 339 337 336 335 334 339 338 338
330 332 335 336 338 339 340 341 342 343 344 346 348 348 349 349 349 350 350 351 353 353 352 351 352 353 353 353 350 352 350 350 349 350 351 349 349 350 350 350 350 351 352 354 355 354 355 355 355 355 355 355 355 355 359 357 360 357 358 354 355 355 354 355 353 354 354 353 352 349 352 345 345 347 347 345 342 340 343 339 337 334 331 331 336
330 331 334 336 338 339 340 342 343 343 344 346 348 348 348 349 350 350 350 352 353 355 352 351 351 353 354 352 351 354 355 352 352 355 353 351 351 351 351 351 351 352 352 354 355 355 354 354 355 356 356 356 356 356 356 358 357 356 355 355 351 363 359 355 353 353 354 354 353 351 350 348 347 351 352 348 348 345 349 343 338 333 332 328 330
330 331 334 336 337 338 340 341 343 343 344 345 347 349 349 349 350 350 350 352 353 355 353 352 351 352 353 354 353 354 353 351 351 354 354 354 353 353 352 352 354 355 353 355 354 354 354 354 353 355 356 356 356 357 357 357 356 357 357 354 354 355 357 352 354 354 354 356 354 354 352 351 351 354 352 353 352 351 347 346 342 338 334 333 329
330 332 334 336 337 338 339 342 343 343 344 345 347 349 349 350 350 350 350 350 352 354 354 353 352 353 353 354 354 355 354 352 353 354 355 354 355 354 353 353 353 357 357 356 354 354 354 361 354 354 356 356 357 357 357 357 355 355 355 354 354 355 355 355 356 356 355 354 357 355 354 354 355 354 354 355 353 352 351 349 347 345 340 339 333
329 331 333 335 336 337 338 340 343 344 346 346 348 349 349 350 351 351 351 351 352 354 355 355 354 355 355 356 356 356 355 353 354 355 355 354 355 354 354 353 354 355 358 356 354 354 354 354 355 353 355 356 356 356 357 355 354 353 354 354 354 355 353 352 353 355 357 356 353 354 353 353 353 355 353 351 353 352 350 350 351 347 345 342 338
330 331 333 334 336 336 337 339 342 343 344 346 347 348 348 349 351 351 352 352 352 353 355 354 354 356 356 357 357 357 356 354 354 355 354 353 354 354 354 354 354 357 356 357 356 355 355 354 355 354 355 356 355 356 356 354 354 354 354 356 355 354 354 352 355 355 358 356 352 352 353 353 353 352 352 352 350 351 353 351 350 350 349 346 344
330 331 333 334 335 336 337 340 342 344 346 347 347 347 348 349 350 351 350 351 351 352 353 354 354 355 357 356 357 356 356 355 355 355 355 354 354 356 354 355 356 355 356 356 355 356 356 356 355 354 355 355 354 354 355 353 352 354 354 354 354 353 353 354 355 356 356 355 354 352 353 354 354 353 352 352 351 351 349 349 350 348 349 351 346
330 332 334 335 335 336 337 340 342 343 345 345 347 347 347 348 349 350 350 351 350 351 352 353 353 354 356 356 357 357 356 355 354 354 354 354 354 354 354 354 354 355 356 356 355 356 357 357 356 354 355 356 355 354 355 354 353 353 354 357 357 354 353 353 351 353 354 357 355 352 354 354 353 351 352 352 352 351 350 349 346 348 346 347 350
330 331 333 335 336 336 336 339 340 342 344 345 346 347 347 347 348 349 349 350 351 351 353 353 353 353 354 356 357 356 355 354 353 353 353 354 354 354 356 354 354 354 355 355 355 356 356 356 356 355 355 356 355 355 355 355 354 354 354 356 357 355 354 354 353 354 355 354 353 352 353 353 355 352 352 352 352 351 351 349 347 347 346 346 347
334 331 333 334 336 336 335 337 339 341 343 345 346 347 347 348 348 349 349 350 351 352 353 352 352 353 353 355 355 356 355 354 353 353 352 353 353 354 356 355 354 354 354 354 354 355 356 356 355 356 355 355 355 355 355 355 355 355 355 355 355 354 354 355 355 355 355 355 355 351 352 352 351 350 350 349 349 349 349 348 347 347 346 346 345
333 333 331 333 334 334 334 336 338 341 343 344 345 346 347 348 349 349 349 350 351 352 352 352 352 352 352 353 354 355 354 354 353 353 353 353 352 353 354 354 354 353 353 353 353 354 355 355 355 355 355 354 354 355 354 355 355 356 355 355 355 354 354 355 356 357 363 357 355 353 353 352 350 348 349 348 349 347 348 346 346 345 345 347 349
332 332 333 331 333 334 334 335 338 341 343 344 345 346 347 348 349 350 350 350 351 352 351 351 351 351 350 351 352 353 354 353 353 352 352 353 353 352 352 354 354 352 352 353 352 353 354 355 355 355 355 354 354 354 354 355 355 356 356 356 356 355 355 355 356 357 357 357 356 355 353 352 350 349 349 346 342 343 344 344 343 343 340 339 338
333 332 331 331 331 332 333 334 338 341 343 344 345 346 347 348 349 350 351 351 351 351 350 350 350 351 350 349 350 352 353 353 353 352 351 351 352 352 351 351 354 353 351 352 352 352 354 354 355 355 355 354 354 354 354 354 355 355 356 355 356 355 355 355 355 356 356 355 354 354 353 351 349 348 347 346 345 343 344 343 344 343 340 338 340
335 333 331 330 331 332 333 334 336 339 342 344 345 347 347 347 348 350 351 351 352 351 350 349 349 349 349 349 349 350 351 352 353 353 351 351 351 351 351 351 352 352 351 351 351 352 352 353 354 355 355 355 354 354 354 354 355 355 355 355 355 355 355 355 356 356 356 356 355 354 353 352 350 349 347 347 346 345 344 342 343 342 342 342 341
335 334 334 333 332 333 333 335 337 338 338 342 345 346 347 348 349 350 351 351 352 350 349 349 349 348 348 349 349 349 350 351 353 351 351 350 350 350 350 350 351 352 352 351 351 352 352 352 353 353 354 354 355 355 355 355 355 354 354 354 354 354 354 354 353 353 353 352 352 351 351 350 352 361 365 365 362 356 346 343 343 342 343 343 340
333 334 336 337 335 335 335 337 338 337 337 338 341 345 346 347 347 349 350 351 351 350 349 348 348 348 349 348 348 349 348 348 349 349 349 349 349 349 349 348 350 351 351 351 350 351 351 351 352 352 353 354 355 356 360 364 363 357 354 355 355 354 354 354 353 351 351 350 350 349 349 360 365 373 371 370 369 370 370 355 346 343 345 343 340
334 334 335 337 337 337 337 337 337 338 339 339 339 340 343 346 345 346 347 348 350 349 348 347 347 348 348 347 347 347 347 346 347 347 347 347 346 347 348 347 347 349 349 350 350 348 349 351 352 352 352 353 355 357 362 345 347 356 362 355 354 353 353 353 351 350 349 350 349 348 346 367 364 364 357 363 364 365 367 368 366 359 353 344 341
334 335 335 336 336 336 336 337 338 339 338 338 338 339 341 341 341 342 342 342 344 344 347 347 347 348 347 347 346 346 346 345 345 345 346 345 345 344 344 345 346 346 348 348 348 348 348 349 351 352 352 351 350 348 335 335 341 343 356 358 355 354 353 351 351 350 349 349 345 348 355 361 359 354 349 346 352 363 361 363 363 363 361 359 353
331 334 335 335 336 337 338 338 339 339 339 340 340 339 338 339 340 342 343 342 342 343 344 345 346 346 346 346 345 345 345 345 344 345 345 346 345 345 346 345 344 346 347 347 346 347 347 347 347 348 348 348 345 332 329 332 333 335 338 356 352 353 352 350 349 349 348 345 346 350 348 347 349 359 352 345 343 347 359 359 359 359 361 358 346
333 334 334 335 336 338 340 340 340 341 342 343 343 341 342 343 342 342 341 342 343 343 345 345 343 344 344 345 344 344 342 341 342 343 344 343 344 344 342 343 346 348 347 347 346 345 346 345 345 345 346 341 336 330 326 328 329 330 333 344 348 349 350 349 348 347 346 345 349 349 345 343 341 342 343 343 342 344 345 346 346 346 348 355 355
331 332 334 335 336 338 339 339 339 340 340 341 341 342 342 342 342 339 339 339 340 338 338 338 338 339 339 341 342 342 341 340 341 343 343 342 341 340 341 342 341 344 346 347 346 344 344 345 344 342 339 335 332 323 322 325 324 327 330 343 347 348 348 346 346 345 348 350 349 348 344 341 339 339 344 346 341 342 344 346 344 346 346 349 350
332 332 332 332 335 337 338 338 340 339 340 341 340 341 341 340 341 340 340 339 338 338 339 339 340 342 340 338 339 339 341 341 341 342 344 343 342 342 341 342 342 341 345 346 344 343 343 339 337 336 335 330 326 319 319 320 321 324 335 349 346 346 346 347 349 350 351 351 348 344 341 339 337 337 339 330 336 341 344 343 343 343 344 348 350
333 333 332 333 334 335 336 336 336 338 338 339 340 341 340 340 339 339 339 338 337 337 338 340 341 343 343 341 341 341 340 341 342 341 343 343 342 341 341 343 340 343 345 345 342 340 337 334 335 332 330 327 327 322 317 316 317 321 340 343 344 346 346 348 349 349 349 349 346 342 341 339 337 336 329 322 325 344 343 340 339 340 343 345 343
332 332 333 333 333 334 336 335 335 335 336 337 339 339 338 336 336 336 337 337 337 338 339 340 340 344 344 343 343 342 340 339 339 340 341 343 345 346 344 345 340 342 345 344 345 342 338 337 333 330 329 327 325 324 315 314 315 319 338 340 343 346 346 349 350 349 347 345 347 355 347 338 336 335 325 322 325 342 338 337 338 339 340 339 337
331 331 330 330 331 333 334 334 333 332 333 335 336 336 334 332 333 334 334 334 336 338 339 340 342 344 344 343 342 341 339 337 337 338 340 339 341 344 344 343 341 341 342 342 341 339 338 335 334 335 339 330 328 329 317 314 316 319 333 336 341 345 347 349 350 349 345 343 345 351 349 342 338 331 319 320 324 340 336 336 337 338 338 335 333
329 330 330 330 331 331 330 330 330 331 334 334 334 334 333 331 331 332 332 332 333 334 336 339 341 343 343 343 342 343 341 339 338 338 340 341 343 342 341 341 341 342 341 342 343 340 338 336 336 334 333 332 329 329 326 313 313 319 329 338 338 344 346 348 349 345 341 339 340 338 336 323 320 318 315 314 319 327 334 336 340 337 334 332 333
325 326 329 327 327 327 326 327 328 330 331 332 332 331 330 331 330 330 330 331 332 334 336 337 339 341 341 342 341 341 340 340 340 339 340 342 341 341 341 341 341 342 341 340 338 336 335 334 335 335 334 334 333 329 326 314 312 313 320 335 335 335 336 341 342 344 342 340 338 338 336 325 317 316 313 310 310 316 329 335 336 335 336 332 329
327 328 326 324 324 324 325 326 327 329 330 330 330 329 328 328 327 326 327 329 330 331 332 333 334 336 337 339 339 339 340 340 342 342 340 339 339 341 341 341 341 339 337 336 335 334 332 333 335 337 336 334 333 331 326 319 313 311 314 324 333 334 338 340 340 340 336 331 331 331 334 329 318 316 312 308 307 312 316 334 331 318 315 320 328
321 322 325 324 322 323 324 325 326 327 328 329 329 327 327 327 326 327 329 329 329 328 328 329 330 331 334 335 336 338 338 339 339 339 337 336 338 340 340 341 340 338 335 331 329 329 330 332 333 332 332 331 330 330 328 325 318 312 311 314 318 325 323 336 330 325 325 325 327 328 330 326 314 310 309 309 308 308 318 325 311 312 314 315 328
322 322 323 324 322 323 323 324 325 326 325 326 326 325 326 325 324 328 330 330 328 327 327 328 329 327 328 330 333 335 334 335 336 335 334 333 334 337 340 340 340 338 332 329 329 330 330 331 328 328 329 329 329 328 327 325 324 316 312 311 312 314 320 325 327 325 325 323 322 326 326 317 312 306 308 308 309 316 323 309 310 313 317 332 330
319 321 324 322 322 322 322 322 323 324 325 325 324 324 325 324 326 330 327 327 329 330 328 325 323 324 327 328 329 329 331 332 333 335 334 333 333 334 333 334 335 332 331 329 330 333 331 330 328 326 324 323 322 322 323 326 324 322 316 313 315 315 314 315 322 325 327 324 321 316 314 310 310 309 309 310 318 320 315 315 317 323 331 324 324
319 319 322 321 321 321 320 320 320 321 322 324 322 323 323 322 326 328 325 327 329 330 330 329 328 326 326 330 329 329 330 331 331 332 332 332 332 332 331 330 331 332 332 331 332 331 330 328 326 324 322 321 320 319 319 320 322 323 321 318 316 321 326 324 322 320 321 319 315 312 310 310 313 315 324 330 328 327 324 324 324 327 322 322 321
317 319 320 319 319 318 318 318 318 319 321 322 322 322 322 322 324 323 324 325 327 326 327 325 325 326 327 330 328 325 324 325 324 324 324 326 327 327 329 331 329 328 329 332 333 332 331 329 323 319 319 319 317 317 318 318 318 319 318 319 316 316 320 318 317 317 318 321 327 329 324 319 319 323 324 324 325 324 324 321 321 323 322 320 319
316 317 317 316 315 315 316 317 317 316 318 320 320 319 318 320 322 322 322 324 328 326 320 320 323 326 328 329 331 334 326 320 320 320 319 320 320 322 322 321 321 322 325 329 333 333 330 327 319 317 316 315 315 316 316 314 313 314 314 314 315 314 311 312 311 311 314 322 324 328 324 326 323 321 320 319 319 320 321 321 316 317 319 324 326
316 317 317 315 316 317 316 317 316 316 317 318 318 318 320 321 321 320 322 327 329 329 325 320 321 322 324 328 323 321 319 316 313 311 310 309 310 312 316 318 318 316 317 322 326 327 328 322 318 315 314 314 315 315 316 307 307 301 304 311 311 309 309 311 313 307 319 320 321 322 323 320 319 319 318 317 316 317 317 317 316 314 314 314 314
316 317 317 318 319 317 317 317 315 316 318 318 318 319 320 322 321 320 321 325 326 324 321 321 322 321 323 322 321 319 318 317 314 313 312 311 308 302 304 312 312 314 307 303 312 321 321 318 316 317 316 315 315 314 302 297 294 294 295 296 297 295 296 303 303 303 319 314 317 318 319 318 317 317 316 316 315 314 314 314 315 318 316 313 313
315 316 314 316 317 320 319 318 316 318 319 319 318 318 319 321 320 319 320 321 322 322 319 319 325 322 324 323 318 316 315 314 314 313 314 314 312 309 297 298 305 306 301 297 299 303 308 312 320 314 311 304 303 299 295 294 295 294 293 292 293 293 294 294 297 311 314 314 316 318 318 319 318 317 317 316 316 315 315 314 313 314 315 315 315
Wind_Speed
9 12 12 11 11 10 9 9 9 9 9 10 9 8 8 8 7 7 6 5 6 5 4 4 4 3 2 4 4 4 4 2 3 3 3 4 3 3 3 4 3 3 3 4 4 4 3 2 2 1 1 0 0 0 1 2 1 1 3 2 2 3 2 1 4 2 2 1 3 4 5 4 2 1 3 3 5 6 5 5 5 5 5 5 5
9 9 10 10 10 10 8 8 9 11 9 10 10 9 8 8 8 7 6 6 6 7 6 5 3 4 4 5 3 4 4 4 4 3 4 3 3 3 3 3 3 3 3 4 3 3 3 3 2 3 1 1 0 1 1 1 1 3 3 4 0 1 2 2 3 0 3 1 1 3 4 6 3 2 3 4 5 5 4 4 4 5 6 5 4
10 11 11 11 12 11 9 8 9 11 12 11 9 9 8 7 7 7 7 7 7 7 6 5 4 4 4 3 5 3 3 5 5 5 4 4 3 3 3 3 3 2 3 3 2 3 4 3 3 3 2 1 0 2 2 2 1 1 2 2 5 1 1 3 4 3 0 0 2 1 2 3 5 4 2 2 3 4 3 4 5 5 7 6 3
12 11 12 11 11 11 9 8 8 8 9 9 9 10 8 7 6 7 7 6 7 7 6 5 5 5 4 6 5 6 5 4 3 2 3 2 3 3 3 3 3 3 3 2 0 2 3 3 3 3 3 1 1 0 1 2 2 2 2 3 1 4 5 3 1 2 2 2 1 1 0 1 3 2 3 5 2 4 2 4 3 5 5 5 3
11 11 11 10 11 11 11 10 9 9 9 10 10 10 8 9 8 8 7 7 7 7 7 5 5 3 3 3 3 3 3 4 3 2 3 3 3 3 4 3 3 3 3 2 2 3 3 2 3 2 2 2 1 1 0 1 1 1 0 2 2 1 4 2 2 1 1 2 3 1 1 2 2 3 3 4 3 3 3 3 2 2 4 4 5
13 13 12 12 12 10 8 9 9 9 9 9 10 10 9 9 9 8 6 6 7 6 6 6 6 6 5 5 5 4 5 5 6 6 5 4 5 3 3 3 3 3 2 2 2 2 2 2 2 2 3 1 1 1 0 0 1 1 0 1 1 0 0 2 4 2 2 2 2 1 3 0 1 2 1 2 6 0 2 2 1 2 4 4 4
11 12 12 12 10 10 10 10 10 10 9 8 8 9 10 9 9 8 7 6 6 5 5 5 5 5 6 6 5 6 6 4 4 5 6 5 4 4 4 3 3 3 3 3 2 2 2 2 2 3 2 2 1 1 0 0 0 0 0 0 0 0 1 4 4 4 4 1 1 1 1 2 2 1 1 0 2 4 3 2 2 3 2 3 2
12 12 13 13 13 13 13 11 10 10 9 9 8 8 10 10 9 8 7 7 6 5 5 5 6 5 5 5 5 6 6 6 5 5 4 4 5 4 4 4 3 3 3 3 2 2 2 2 2 2 2 2 1 2 2 0 0 1 0 0 0 1 2 3 2 3 3 3 3 2 1 0 1 3 2 1 2 0 5 5 2 4 4 3 1
13 13 13 13 13 12 11 11 10 9 9 10 9 8 9 9 9 7 7 6 6 5 5 4 5 6 6 5 5 4 5 5 4 4 5 4 4 3 3 4 3 3 3 3 3 3 2 2 2 2 1 2 1 2 0 0 0 0 1 1 1 2 1 0 2 1 1 2 4 4 3 2 2 2 2 2 2 1 1 0 3 5 3 1 4
13 15 15 14 13 13 13 11 10 10 9 9 8 8 8 8 8 8 7 6 5 5 6 5 5 6 5 5 6 5 4 3 4 5 5 4 4 4 3 3 4 3 3 3 3 3 3 2 2 2 3 2 2 2 1 1 0 0 0 1 0 2 1 0 1 0 0 0 1 1 4 4 5 3 3 2 2 2 1 2 2 2 4 3 3
12 13 14 14 13 13 10 11 11 9 8 9 8 9 8 8 8 8 8 6 5 6 5 6 5 6 6 6 6 7 5 5 5 4 4 3 4 4 3 4 3 4 3 3 3 3 3 2 2 2 2 2 1 1 2 2 1 1 0 0 0 1 2 2 2 0 0 2 3 2 2 2 1 1 2 2 1 0 2 2 3 2 2 3 3
12 12 12 12 10 9 10 10 10 10 9 9 8 8 9 8 8 8 6 6 6 6 6 6 5 6 5 6 7 7 7 6 7 7 6 6 5 5 4 3 3 3 3 3 3 3 3 3 2 2 2 2 3 2 2 2 0 1 1 1 0 0 1 1 2 3 3 3 3 2 1 1 0 0 2 1 0 1 1 1 1 2 1 3 5
13 12 12 12 12 12 11 10 9 9 10 11 10 9 9 8 9 9 8 7 7 6 7 6 5 6 6 6 6 6 7 7 7 7 6 7 6 5 4 5 3 3 4 4 4 4 3 3 3 3 2 3 3 2 3 1 1 1 1 1 1 0 0 1 2 1 1 2 2 2 1 2 2 2 1 2 0 3 3 1 0 0 0 2 2
12 13 13 13 12 12 13 11 11 10 11 11 10 10 9 9 9 10 9 7 6 6 7 6 6 6 5 6 6 5 6 6 6 6 6 6 6 6 6 6 5 5 5 5 5 4 3 4 3 3 3 3 3 3 3 2 1 2 2 1 1 0 0 1 1 1 0 1 1 5 4 4 2 2 1 2 1 1 1 1 1 2 1 2 3
11 12 13 14 14 13 12 12 11 11 11 11 10 9 9 9 9 10 9 8 7 7 6 7 6 5 5 5 5 5 6 6 6 6 6 6 6 6 6 6 6 5 5 5 3 4 4 4 3 4 4 3 3 3 3 2 2 2 1 1 1 0 0 1 1 2 2 3 3 3 4 3 3 3 2 2 1 1 0 0 1 4 4 3 3
11 12 13 14 14 13 12 12 11 11 11 10 10 10 10 9 10 10 10 9 8 8 7 7 6 5 4 5 5 5 5 5 5 4 5 6 6 7 7 6 6 5 4 4 4 4 4 4 3 4 4 4 3 4 3 3 3 2 2 1 2 1 1 1 0 0 1 2 3 2 3 4 3 3 2 2 1 0 1 3 2 2 0 4 3
11 13 13 14 13 13 13 13 11 11 11 11 11 11 11 10 10 10 9 8 9 8 8 6 6 5 5 4 4 4 5 6 6 6 6 5 6 6 6 6 5 5 5 4 4 4 4 4 4 4 4 4 3 3 4 3 3 3 2 2 3 2 0 1 1 2 2 1 2 2 1 3 3 2 1 2 1 1 0 1 2 1 4 1 2
10 13 13 15 14 14 12 12 13 13 13 12 12 11 11 11 11 11 9 10 9 8 8 7 6 6 5 5 5 5 6 6 6 6 5 5 4 4 4 5 5 5 4 4 4 4 4 5 4 4 4 3 4 3 4 3 3 3 2 3 3 1 2 2 3 2 3 1 2 3 2 2 2 2 2 0 1 0 1 1 2 3 4 1 3
7 10 12 12 13 14 13 14 13 13 14 13 12 11 10 9 10 12 12 11 10 8 7 6 6 6 5 5 5 5 5 5 5 5 5 5 6 5 5 5 5 4 4 4 4 4 5 5 4 5 4 4 4 4 4 3 3 3 3 3 3 2 2 3 4 3 3 2 3 4 3 3 2 2 2 1 1 1 2 1 1 4 3 3 4
9 9 11 13 14 14 14 14 14 13 12 11 11 10 11 10 10 9 8 7 7 8 7 7 7 6 6 5 5 5 5 5 5 5 6 6 6 6 5 5 6 5 5 5 4 4 5 5 5 5 5 4 4 4 4 4 3 3 3 3 3 2 2 3 4 3 3 3 3 3 4 4 4 2 3 2 2 3 1 0 1 1 1 2 3
9 10 11 13 13 13 13 13 14 13 12 11 11 12 11 10 10 10 11 10 10 9 8 7 6 6 6 7 6 5 5 5 5 5 6 6 5 5 6 6 4 5 5 5 5 5 5 6 6 5 5 5 5 4 4 3 3 3 3 3 3 3 3 4 3 5 3 3 3 3 4 4 3 3 3 4 3 3 3 2 0 1 2 3 3
9 11 11 11 11 12 11 11 10 11 11 12 11 10 10 10 10 10 9 9 10 9 8 7 6 7 7 7 6 5 5 5 6 6 6 6 6 6 6 4 6 6 5 6 6 5 5 6 6 6 5 5 5 5 4 3 4 4 4 3 4 3 3 4 3 4 5 4 3 3 4 5 3 3 3 4 3 3 3 3 3 2 4 4 3
8 10 10 11 12 11 11 12 13 13 12 13 11 11 11 10 10 9 10 10 10 10 9 8 7 7 7 6 6 6 6 6 6 6 6 6 6 6 5 6 6 6 5 6 6 6 6 6 6 6 6 5 5 5 5 4 5 5 5 4 4 4 4 4 4 5 5 3 3 3 5 4 3 3 4 4 3 4 3 3 4 2 3 3 3
3 5 7 9 10 10 9 10 11 11 11 12 11 11 11 10 11 10 11 11 9 8 8 8 7 7 7 6 7 6 7 7 7 6 6 6 6 6 6 6 6 5 6 6 6 6 6 6 6 6 6 6 5 5 5 5 6 5 6 6 5 5 4 4 5 5 5 4 4 3 5 5 3 3 4 4 4 3 3 3 3 4 3 4 3
3 3 5 8 9 10 10 10 11 11 11 11 11 11 11 11 10 11 11 11 10 9 9 8 9 9 8 8 7 7 7 7 8 6 7 7 6 6 5 6 6 6 6 6 6 5 5 6 7 7 6 6 6 6 5 5 5 5 6 6 5 5 5 5 5 5 5 4 4 4 6 4 3 3 4 4 4 4 4 3 4 4 3 3 1
3 2 3 7 10 10 9 9 10 12 12 12 11 11 11 11 12 11 11 10 10 9 9 9 9 9 8 9 8 7 8 8 8 7 7 7 7 6 6 6 6 7 6 6 7 6 6 7 7 7 7 6 6 6 6 6 6 6 5 5 5 5 5 5 5 5 5 4 4 5 5 4 4 4 5 4 4 5 4 4 4 5 4 2 2
3 3 2 3 4 5 5 6 10 12 12 12 12 12 11 11 11 11 10 11 11 10 10 10 9 9 8 9 9 9 8 8 7 7 6 6 6 6 6 7 6 6 7 6 6 7 6 7 7 7 7 6 6 6 6 7 6 6 6 6 6 5 5 5 4 5 5 4 5 5 5 4 5 5 5 6 6 5 5 5 5 5 3 3 3
3 3 4 6 6 6 6 6 3 5 9 12 12 13 13 12 12 11 10 9 8 9 10 10 10 9 9 10 9 8 8 8 7 7 6 6 6 6 6 6 5 6 6 7 7 7 7 6 7 7 7 6 6 6 6 6 6 7 6 6 6 5 5 5 5 6 5 5 5 5 6 5 6 6 6 7 5 6 4 5 6 4 4 3 4
3 2 2 5 7 7 7 5 4 4 2 6 9 10 10 10 10 11 10 10 9 9 10 10 9 10 10 9 8 7 6 7 7 7 7 7 7 6 6 6 5 6 6 7 7 7 7 7 7 7 7 6 6 7 6 6 7 6 6 6 6 6 6 6 6 6 6 5 5 4 5 5 5 9 11 9 9 7 4 5 6 3 4 4 3
4 4 5 3 2 5 6 7 6 4 4 3 3 7 10 11 10 9 9 9 9 9 10 10 10 10 9 8 8 7 7 7 7 8 7 7 7 6 6 6 6 7 7 6 6 7 7 8 8 7 6 6 6 6 7 11 8 6 6 6 6 6 5 5 6 5 5 5 5 4 4 8 4 2 6 6 7 6 3 6 6 3 4 3 3
6 3 3 4 4 3 4 5 5 5 6 5 5 3 4 4 4 3 2 2 6 10 9 10 11 9 8 8 8 8 7 8 8 8 7 7 7 6 6 6 6 6 6 6 5 6 7 7 8 7 7 7 6 6 9 9 10 9 5 5 6 6 5 5 5 5 6 5 4 3 2 1 3 2 2 5 4 4 6 5 3 7 7 5 5
8 7 6 6 6 4 2 5 5 5 5 6 6 6 6 3 4 7 6 6 4 1 7 10 10 9 8 8 8 8 8 9 8 8 7 7 6 6 5 5 6 6 6 5 5 6 6 6 6 6 6 6 6 5 6 5 6 8 7 5 5 5 5 6 5 5 5 4 3 2 2 1 1 2 1 2 2 4 5 4 4 1 4 7 5
6 8 7 8 7 5 2 5 4 3 4 4 7 8 5 1 2 3 8 7 8 5 2 5 6 6 7 7 7 7 9 7 5 3 3 5 6 6 6 6 7 7 5 6 7 6 6 6 5 5 5 5 5 4 4 3 4 5 6 6 5 5 5 6 5 5 5 5 3 4 2 1 1 3 2 1 2 2 4 4 5 5 3 1 5
6 7 8 7 7 7 8 11 9 5 5 3 3 6 6 5 3 1 3 8 10 4 3 3 5 3 3 5 5 5 4 3 3 3 3 2 0 2 1 1 3 4 6 7 7 7 6 6 6 6 5 4 3 2 1 2 3 4 5 5 4 5 5 5 5 6 6 5 6 6 5 3 1 0 1 1 2 2 2 2 3 3 3 5 7
0 3 4 5 6 7 7 8 9 10 8 6 5 4 4 5 6 8 10 9 3 8 9 9 8 9 12 8 2 6 6 5 5 5 4 4 3 2 1 1 0 1 4 7 8 8 7 6 6 5 5 4 2 3 1 1 2 3 3 4 4 4 5 5 6 5 6 6 5 5 5 5 3 2 1 1 1 1 1 1 2 2 3 3 4
3 0 1 1 1 3 4 4 5 8 9 8 6 3 5 6 7 8 8 5 3 0 5 7 10 10 9 3 6 3 6 6 6 6 6 6 5 5 5 2 2 1 2 2 1 1 3 3 3 3 4 3 1 4 4 4 2 2 4 3 3 4 4 3 3 3 4 4 4 5 5 4 3 2 3 4 2 1 0 0 1 1 2 3 4
5 4 4 4 2 3 4 3 2 3 7 8 6 7 7 5 5 5 6 6 3 4 4 4 5 5 7 8 9 6 5 7 8 7 6 5 4 2 1 2 4 3 2 2 2 2 2 2 2 2 3 2 2 5 7 7 6 4 1 3 3 3 3 3 3 3 3 3 3 3 3 4 3 2 2 2 3 2 1 1 1 0 1 2 2
7 7 7 6 5 4 3 6 7 4 4 6 8 8 7 6 4 4 5 4 2 4 6 2 4 3 1 1 1 2 4 4 5 6 5 5 4 3 1 1 1 3 4 5 6 6 4 3 3 3 3 3 2 3 5 6 6 5 1 2 2 4 3 4 3 2 2 2 2 6 3 2 3 2 2 1 2 0 2 1 2 1 1 2 2
8 8 7 7 6 4 4 7 7 7 4 4 7 9 9 6 5 5 6 6 4 2 2 2 4 4 4 4 3 2 2 2 3 3 6 7 6 4 3 3 3 2 3 4 4 2 2 2 2 3 5 4 2 3 6 8 7 4 2 2 4 5 5 5 4 4 3 2 2 3 4 3 2 2 3 3 4 2 3 1 0 2 2 2 1
8 8 7 7 5 6 7 8 7 6 5 5 5 8 8 6 5 4 5 5 4 4 4 3 3 3 4 4 5 5 6 7 4 6 7 8 7 5 4 4 4 3 3 4 5 4 4 4 3 4 3 3 3 4 7 10 9 7 4 2 1 4 4 4 4 4 3 3 3 4 6 10 9 8 8 8 8 6 3 2 2 3 3 1 1
8 8 7 7 7 7 8 7 6 6 6 6 7 8 8 6 6 6 7 5 4 4 5 3 2 2 2 3 3 4 6 3 4 7 6 6 6 7 6 5 4 4 5 4 5 6 6 5 4 5 5 5 5 5 6 11 10 10 10 5 2 2 2 1 2 5 1 4 4 3 3 6 5 4 3 4 6 8 5 1 2 2 1 1 2
4 6 6 6 7 8 8 9 7 7 6 6 8 9 8 7 8 8 5 3 3 4 5 5 4 3 2 1 1 0 1 1 2 4 4 2 1 2 3 4 4 5 6 5 5 4 5 6 5 5 5 6 7 10 6 11 13 12 11 9 4 3 1 4 3 1 3 3 4 4 3 7 10 9 6 4 2 3 6 2 1 3 3 2 0
5 6 6 7 7 7 8 7 7 7 6 6 10 10 9 8 9 6 5 5 6 6 6 5 5 5 4 4 4 4 4 4 5 5 5 4 2 2 2 3 4 5 6 7 7 5 5 5 6 6 6 6 6 7 13 11 14 14 13 10 8 7 10 6 5 5 4 3 3 5 5 10 10 11 14 14 10 6 6 2 4 4 2 3 1
5 5 5 6 7 6 7 7 6 6 6 6 8 9 9 10 7 3 4 4 4 5 5 6 5 5 4 5 5 5 6 5 5 5 6 5 3 3 4 5 5 6 6 7 5 5 5 6 6 6 5 5 5 4 10 13 9 12 13 12 10 13 13 9 7 5 3 3 4 3 3 3 4 9 14 14 11 9 4 5 5 4 4 5 6
4 5 5 6 7 7 7 8 7 7 7 7 6 7 6 7 3 3 3 3 3 3 3 4 5 5 5 5 5 5 5 5 6 6 6 5 5 4 6 5 8 7 8 7 5 4 5 6 5 5 4 5 5 6 4 6 8 11 11 10 10 8 11 11 7 2 1 1 3 2 4 7 8 10 14 13 5 6 9 9 10 10 10 6 6
4 4 4 5 5 6 6 7 7 6 6 5 6 6 6 2 2 3 3 3 4 4 3 3 3 2 2 3 4 6 6 6 7 7 7 6 6 5 4 5 6 5 5 6 5 4 4 5 4 4 4 3 4 5 4 4 4 5 4 5 6 5 8 8 6 3 3 5 6 9 10 10 9 8 6 4 6 6 12 13 13 11 7 6 5
4 2 3 4 5 5 6 5 5 4 5 5 6 5 4 3 4 3 3 4 4 4 4 4 4 3 2 2 5 5 5 7 7 7 7 6 6 6 5 5 5 5 5 4 5 5 5 5 4 4 4 4 4 3 2 1 2 1 2 2 3 2 4 4 3 2 2 1 2 1 1 5 9 11 11 10 10 9 8 8 7 7 7 7 6
3 3 4 4 5 4 4 5 4 3 3 4 4 4 3 4 4 3 4 5 5 5 5 5 5 4 5 4 4 7 6 5 6 7 7 7 6 6 6 5 5 4 3 4 5 5 5 5 6 5 4 4 3 0 0 1 2 3 1 1 2 3 4 4 4 4 4 4 3 3 5 4 6 7 7 7 7 7 7 7 7 6 6 6 8
5 3 3 5 4 4 4 4 3 2 3 4 4 4 4 5 4 4 4 5 4 4 4 5 5 5 5 5 5 5 5 6 6 7 7 6 5 4 4 4 4 4 3 1 3 4 4 5 5 5 5 4 2 2 1 4 3 3 3 4 4 4 4 5 4 5 3 3 4 5 5 5 5 6 6 6 6 7 7 6 6 6 6 5 5
2 3 3 4 4 5 4 4 2 3 4 4 4 4 4 4 4 4 5 5 4 4 4 4 3 3 4 5 5 5 5 5 5 4 5 6 9 8 6 4 3 9 9 4 3 2 4 6 6 3 3 2 1 2 6 6 4 4 5 4 2 3 4 4 7 8 1 4 4 5 5 5 5 5 6 6 6 6 6 6 6 5 5 5 5
3 4 3 4 4 5 5 4 3 3 4 3 3 3 4 4 4 3 4 4 4 4 3 4 3 2 2 4 4 5 4 5 4 5 5 6 4 6 9 10 8 8 8 11 12 13 11 7 4 4 5 10 10 8 6 3 1 3 3 4 4 5 6 6 7 4 5 5 4 6 5 5 4 5 5 5 5 6 5 6 5 4 4 4 3
Wind_Direction
169 164 162 160 161 160 157 156 159 155 154 156 163 169 168 167 159 166 165 159 159 163 170 164 164 163 136 172 189 185 182 194 189 192 175 185 168 175 181 190 192 192 205 203 215 230 213 204 191 215 258 106 119 271 308 312 295 299 323 314 320 333 317 359 343 64 73 336 356 351 332 334 317 181 227 234 225 229 228 227 245 258 252 252 252
161 154 158 154 154 155 156 162 160 157 161 157 166 170 168 166 168 168 163 163 170 174 175 173 177 175 162 180 173 159 164 174 192 206 199 188 173 173 181 176 170 185 192 207 203 184 165 169 184 213 185 165 184 236 283 321 355 7 11 346 294 308 310 333 313 54 17 112 9 326 340 324 292 293 245 226 230 240 222 230 239 245 255 248 254
165 164 159 161 157 156 162 172 173 164 161 162 162 163 166 168 171 167 168 167 173 176 167 177 174 171 167 168 172 163 192 183 185 185 184 187 184 183 186 183 174 200 210 206 174 180 174 161 197 205 189 192 58 11 18 345 346 12 40 21 324 334 298 303 343 53 148 101 131 83 329 9 328 351 325 305 271 246 224 226 228 234 251 256 255
169 166 164 163 160 158 164 173 174 162 160 159 158 164 167 170 171 168 171 168 171 178 178 175 164 171 168 164 176 172 174 178 171 151 176 159 197 197 203 196 201 215 219 241 222 195 166 176 185 187 222 194 150 67 16 350 332 359 25 16 25 358 7 318 351 23 125 122 316 10 250 95 340 315 320 294 312 292 264 243 209 229 245 259 268
168 166 163 162 161 166 171 173 168 168 166 166 163 165 170 171 172 171 172 173 171 177 176 164 146 127 98 81 104 80 66 118 127 162 188 190 185 194 212 204 211 218 230 219 212 209 180 163 168 208 202 212 147 128 131 268 295 275 47 39 41 76 344 328 305 32 60 174 141 74 351 15 230 247 348 291 354 356 344 286 213 220 243 248 243
167 169 169 168 168 166 166 166 171 171 170 172 166 166 162 170 167 168 170 169 171 176 167 157 158 149 137 134 140 144 145 148 173 182 187 190 201 196 200 203 206 218 227 231 224 200 184 180 169 189 209 210 166 174 185 3 2 34 336 120 16 320 213 14 6 338 35 46 98 173 176 178 273 278 80 306 321 250 294 346 339 228 225 229 244
169 169 167 166 171 167 170 172 173 172 174 166 166 163 160 165 169 167 171 172 172 171 163 153 148 153 159 164 162 162 161 194 186 180 177 193 185 185 200 201 205 208 231 224 229 222 185 186 186 201 222 196 201 130 166 190 284 251 317 72 222 334 97 54 36 326 346 350 40 297 191 198 164 58 327 125 357 319 357 348 336 342 304 248 271
170 171 172 172 171 173 176 178 174 173 165 162 165 161 162 166 167 169 169 171 174 165 163 160 159 164 162 166 165 162 170 176 177 182 178 170 176 191 190 204 204 209 224 237 227 221 196 201 196 206 223 262 261 224 235 246 337 352 317 159 319 83 83 83 39 7 79 307 334 356 351 16 122 116 155 129 162 39 330 326 294 350 3 32 6
168 171 174 175 175 179 176 177 176 162 162 165 167 165 162 165 166 166 170 169 175 167 163 173 166 169 169 165 169 178 178 174 167 167 171 179 176 186 190 206 211 222 221 226 227 216 216 197 195 205 217 251 243 254 267 163 200 354 348 6 56 18 1 98 96 7 45 6 349 346 360 31 25 77 92 70 112 99 302 298 301 325 5 346 355
172 172 173 177 178 177 181 175 165 168 168 163 156 156 160 161 166 168 175 174 172 173 165 172 178 161 167 176 173 179 170 136 150 167 179 174 185 191 200 208 216 226 238 228 229 218 211 176 173 195 214 224 228 218 236 209 205 142 188 296 34 38 359 323 94 246 263 317 103 338 24 350 14 6 24 31 32 58 146 313 284 333 357 294 318
174 174 175 176 178 176 169 173 174 165 164 161 155 159 161 165 167 172 179 172 171 178 169 175 176 167 174 178 180 177 173 155 153 174 169 171 192 201 200 217 214 222 220 219 220 218 207 193 180 212 219 229 235 199 231 235 242 223 220 123 106 62 11 27 32 304 280 38 28 51 45 72 92 345 289 311 99 49 29 325 314 238 240 321 317
174 172 175 172 168 174 173 174 171 169 162 165 163 159 164 168 168 173 177 176 174 176 178 179 175 177 179 176 181 182 172 168 174 177 181 185 193 200 206 204 227 227 219 205 216 226 216 219 222 201 216 239 246 238 246 232 249 150 125 156 242 120 80 61 43 14 5 10 25 10 356 307 89 203 242 189 149 193 133 247 260 315 348 250 277
173 174 171 171 172 172 177 176 171 167 172 171 168 167 166 168 172 173 183 181 180 173 181 181 179 182 181 184 187 180 178 178 181 180 180 183 188 197 194 204 213 217 220 204 215 207 209 226 240 236 242 231 244 244 257 248 192 153 152 179 224 89 111 84 49 2 9 42 346 325 335 336 348 273 192 180 93 130 139 95 237 148 271 302 294
175 173 173 175 175 177 176 174 176 178 176 173 170 170 170 172 175 180 184 181 180 179 181 179 188 185 182 186 187 180 183 182 184 182 185 184 182 193 193 197 200 209 200 207 205 197 202 216 216 226 229 233 229 237 242 248 190 205 183 188 260 188 190 72 55 345 72 350 58 20 7 345 335 313 182 148 196 179 37 90 344 336 36 308 300
175 173 177 178 178 176 176 176 178 180 179 176 173 172 171 174 178 183 182 183 181 186 180 184 187 186 185 184 185 182 185 186 187 186 181 183 191 189 196 195 195 206 202 206 196 197 207 209 219 228 234 232 227 234 240 235 228 234 221 208 259 234 313 86 46 16 11 357 10 31 349 343 343 322 354 3 224 179 346 174 78 347 339 7 345
178 176 180 180 178 178 177 178 179 181 181 179 176 172 176 179 180 186 185 183 185 185 188 185 187 185 186 183 187 187 189 186 186 186 186 187 187 189 193 194 201 198 206 198 208 194 207 211 218 229 235 236 229 220 225 214 224 227 277 282 296 270 345 10 311 26 8 341 338 354 19 338 320 323 4 14 20 192 136 130 110 114 42 329 336
179 178 179 180 179 180 179 179 180 181 181 183 180 177 179 177 181 187 186 183 188 190 189 185 183 185 197 192 185 184 187 186 189 189 186 190 185 190 186 196 198 197 201 202 208 209 211 211 214 227 230 225 219 218 217 213 207 224 247 278 275 287 23 302 315 331 311 334 332 353 328 293 300 306 1 45 42 51 144 160 145 159 163 105 321
188 181 180 179 179 180 180 183 181 181 184 185 184 181 181 180 182 185 185 185 190 189 190 186 185 192 197 195 194 190 190 194 190 189 181 176 188 190 185 186 199 200 197 203 202 213 219 220 215 224 225 215 210 211 212 210 200 226 249 265 268 312 313 323 297 305 306 323 332 322 340 307 285 298 312 318 65 304 304 209 206 164 149 191 188
180 186 180 181 181 181 180 183 185 184 184 183 182 180 180 183 185 185 187 189 186 187 187 188 186 192 197 198 191 195 197 197 194 187 175 181 188 189 193 200 199 200 200 205 199 211 216 225 217 222 220 219 212 212 209 204 193 219 240 252 281 293 286 288 290 301 295 332 325 319 315 296 265 273 287 333 338 309 341 147 138 142 169 147 163
175 187 187 183 183 182 181 182 184 185 184 184 180 177 181 184 182 188 187 180 180 186 184 186 189 190 193 191 194 192 194 193 190 180 182 192 196 190 196 198 208 200 207 206 203 205 209 216 216 216 214 216 211 221 208 208 199 214 230 241 254 230 257 269 283 295 292 300 305 308 305 295 295 292 293 318 311 303 313 348 173 179 212 189 149
175 184 190 186 184 182 183 184 184 183 182 179 179 180 183 180 184 185 180 181 186 190 185 188 181 192 188 192 192 186 192 188 187 186 189 198 199 198 198 204 192 208 204 207 207 210 207 210 210 207 208 208 213 220 222 209 204 221 228 226 246 222 236 260 261 280 281 275 277 289 288 287 275 298 300 307 299 280 312 328 237 193 207 184 159
181 184 187 186 184 183 181 182 181 178 179 181 182 181 180 181 185 183 184 186 184 186 188 186 186 188 193 194 195 186 187 184 190 192 197 199 202 201 203 195 202 212 201 208 207 207 204 204 202 206 206 211 212 215 219 205 210 223 236 221 231 229 230 252 255 265 269 257 255 269 285 283 294 286 292 294 283 302 300 298 288 212 221 210 199
185 183 186 186 183 181 179 179 180 180 181 181 179 181 182 185 182 183 183 190 188 186 183 181 185 189 197 196 193 191 187 189 193 196 204 204 204 205 194 197 205 209 205 208 206 203 200 201 203 202 204 210 212 216 217 209 216 216 226 232 225 219 223 240 246 250 254 257 270 264 272 277 285 291 283 279 291 290 293 263 270 265 266 254 204
170 199 188 188 184 178 173 180 181 181 181 182 183 182 182 183 184 183 188 189 187 184 179 177 182 192 197 196 197 196 195 196 200 201 206 211 207 206 198 199 204 200 201 210 207 205 199 199 203 204 203 209 209 213 215 214 217 216 221 230 231 224 225 227 234 246 252 246 246 263 268 266 274 293 289 296 292 287 282 267 273 276 235 256 221
131 177 193 190 185 180 178 180 183 183 183 183 182 183 183 184 183 186 191 188 186 182 181 182 183 187 193 198 200 197 199 202 207 203 209 209 209 207 201 206 203 206 205 202 209 205 204 201 206 207 208 209 211 209 214 219 221 218 219 226 230 229 228 230 232 240 245 243 246 238 260 274 278 277 286 286 285 287 274 258 258 262 245 265 294
114 115 173 195 192 186 178 178 186 186 183 184 184 184 184 183 188 187 187 184 186 181 184 182 185 185 191 197 200 198 201 203 206 208 208 209 208 208 205 207 203 209 208 204 204 203 201 206 210 212 210 211 212 212 213 220 222 222 224 229 234 233 231 230 236 239 245 245 248 251 252 255 262 255 268 272 267 263 264 252 254 267 264 284 259
102 114 132 136 147 167 166 179 189 187 187 185 184 185 185 186 188 189 188 185 183 180 183 184 187 190 190 196 199 201 202 202 205 207 205 205 207 209 209 212 207 209 208 208 208 204 207 205 212 212 213 213 215 217 218 220 223 221 222 226 236 238 239 238 239 243 248 251 249 253 254 246 247 244 251 258 260 259 252 259 249 249 246 236 257
92 99 137 162 159 145 136 125 140 212 199 187 188 186 185 185 187 189 187 185 184 182 184 186 187 193 196 200 200 199 202 204 204 204 206 206 207 210 212 213 206 209 213 213 209 206 209 206 212 211 214 211 214 220 222 224 222 219 215 221 225 229 236 240 242 239 238 241 239 242 248 246 239 243 241 258 250 252 243 254 256 238 237 225 238
37 90 130 164 166 157 142 124 111 115 176 217 195 191 190 189 189 186 183 188 182 181 185 187 191 195 200 200 201 203 203 204 204 204 209 212 213 214 214 215 213 214 214 214 213 208 206 211 215 212 214 210 210 218 219 216 217 220 214 218 220 224 230 238 243 247 248 247 250 244 251 258 254 256 257 253 252 240 222 243 261 236 237 225 223
24 359 20 345 225 159 146 127 104 101 109 134 229 216 192 188 191 188 187 188 175 184 185 191 195 200 198 196 198 201 204 205 207 210 213 213 216 216 216 219 220 220 221 215 212 211 208 211 214 215 213 210 214 216 217 216 211 210 211 217 219 223 224 227 232 243 255 250 251 256 257 265 252 102 67 44 32 6 274 227 242 205 217 212 209
138 105 48 54 40 53 60 73 87 91 85 71 74 26 297 233 170 157 178 204 186 183 191 193 200 201 196 195 196 200 197 202 209 213 215 217 219 219 221 223 223 223 223 219 213 214 213 213 214 211 208 211 213 212 205 209 219 227 220 216 217 221 219 225 226 228 243 259 262 251 243 112 92 64 66 58 33 17 19 9 274 219 207 199 207
130 109 88 58 46 8 57 66 58 68 80 94 84 83 96 116 149 132 125 92 43 305 210 198 203 199 197 197 198 197 197 203 204 210 215 219 219 218 223 227 228 227 225 216 216 218 220 219 216 211 205 204 203 186 189 208 217 217 220 215 214 218 217 218 227 230 239 246 223 196 177 173 148 140 76 24 0 23 23 17 22 327 238 230 214
115 120 120 118 119 117 79 68 34 81 102 117 119 114 118 125 287 172 134 141 149 156 233 244 217 199 200 198 197 200 203 202 198 206 229 219 210 218 223 219 221 223 216 212 217 211 216 216 211 203 201 201 198 168 194 218 233 235 237 229 215 217 213 219 218 223 227 222 187 177 157 23 349 54 45 17 26 10 3 23 31 27 15 231 243
134 136 138 142 147 149 154 152 155 147 127 119 101 121 131 127 137 275 173 173 171 145 78 20 344 303 227 175 163 161 154 126 100 92 82 51 190 195 205 244 239 215 207 215 215 211 209 206 203 201 197 178 163 114 126 242 249 238 231 223 224 219 222 219 219 218 217 202 184 176 166 164 210 68 61 51 44 29 359 18 25 35 43 49 57
74 126 132 147 160 147 148 144 141 137 130 116 112 117 121 108 95 67 24 360 37 90 94 92 80 30 3 337 176 162 157 142 128 121 114 116 111 98 76 36 46 259 234 216 206 207 208 202 197 179 168 170 141 51 1 267 265 261 259 240 236 232 220 223 220 209 195 187 179 171 167 162 168 160 127 69 82 7 10 40 57 55 56 63 65
3 43 64 68 71 146 138 134 134 130 133 140 135 102 78 65 83 103 105 84 341 257 145 148 145 148 146 167 294 242 170 160 152 151 156 156 148 151 160 158 116 69 19 359 325 241 194 172 149 150 158 159 74 15 353 347 322 275 253 217 215 214 203 197 190 183 180 170 161 160 156 157 170 152 83 31 33 311 67 82 83 36 77 87 82
47 55 55 39 37 114 121 95 56 86 113 114 107 107 99 85 77 81 99 122 163 256 229 164 154 143 162 180 188 205 206 182 173 169 163 145 117 61 56 139 122 114 73 36 21 33 53 87 89 84 109 90 47 17 0 349 339 335 219 178 184 177 176 179 181 176 169 162 164 166 153 149 141 133 77 40 6 3 108 98 116 51 57 98 51
48 55 54 37 17 342 109 122 122 106 101 109 111 109 98 89 77 85 100 102 130 238 259 191 131 127 138 61 347 248 211 189 186 171 136 99 88 91 35 11 67 93 83 64 28 11 18 50 73 75 91 97 50 10 4 345 339 334 321 155 164 162 174 171 166 158 147 151 186 163 132 132 139 150 93 58 1 177 135 146 133 139 103 79 8
41 39 43 37 28 12 64 99 105 99 66 72 94 100 103 105 104 108 110 119 135 201 240 199 144 127 123 138 138 159 271 251 213 117 87 75 55 57 43 57 72 52 65 81 93 87 337 18 65 84 87 79 42 22 16 350 332 303 248 178 166 172 175 182 148 104 57 44 17 99 87 59 71 89 55 24 10 75 110 94 104 113 104 81 333
42 40 42 41 26 28 45 46 53 52 53 70 103 120 118 118 115 112 102 97 79 53 21 29 90 126 153 166 179 197 196 216 202 99 104 120 142 141 136 120 112 112 116 108 125 102 70 31 34 64 65 57 46 19 16 355 339 317 276 209 181 182 199 152 96 102 131 79 78 63 46 36 27 22 8 4 13 34 88 78 90 108 108 155 8
48 47 49 54 38 40 41 38 40 51 63 73 88 88 88 95 92 78 67 64 84 108 111 110 95 126 164 185 208 201 193 191 148 141 159 159 156 146 135 131 127 129 117 91 86 111 124 118 85 62 53 43 43 32 19 10 352 341 318 312 11 49 58 94 261 247 129 94 74 80 90 75 53 39 24 359 352 342 348 65 106 133 109 60 30
43 51 50 58 57 41 37 41 38 50 56 69 78 79 74 72 73 73 72 83 83 71 71 74 83 94 105 128 143 104 55 47 81 113 124 130 85 83 114 119 120 112 112 111 112 105 107 109 102 91 79 57 45 52 35 29 19 12 17 34 45 24 26 121 120 223 79 79 61 35 31 29 13 358 351 338 279 249 279 258 75 73 58 74 271
45 50 47 62 58 48 44 40 35 39 49 70 88 86 85 78 70 51 36 36 38 48 58 65 55 46 42 41 43 52 52 53 53 59 78 81 92 106 108 120 125 121 118 117 113 122 107 90 81 69 63 57 43 37 40 40 30 28 22 33 60 65 40 60 93 92 79 70 56 50 43 32 0 344 334 323 313 303 266 209 161 185 166 216 178
50 53 58 66 68 61 53 39 33 35 38 41 73 85 83 84 82 92 82 73 66 59 59 58 56 50 46 39 37 48 57 62 70 79 82 82 78 118 143 146 136 123 105 98 95 102 100 92 88 83 74 76 67 59 52 50 40 31 17 6 30 65 68 66 62 54 34 50 59 64 69 59 326 310 293 287 284 255 216 186 179 163 150 117 96
69 62 59 56 62 62 57 45 31 32 28 30 35 75 75 69 51 68 71 74 68 73 74 73 68 63 57 52 54 55 52 51 50 57 67 66 70 76 94 95 99 103 111 115 122 121 113 113 108 96 78 54 46 46 30 45 57 57 32 9 7 37 78 87 83 58 345 188 248 226 204 214 221 238 259 264 246 98 103 99 98 98 94 84 84
81 75 71 83 79 72 66 59 38 30 37 38 38 44 60 27 47 79 95 97 93 82 65 61 82 86 72 49 57 48 46 49 62 62 63 57 59 44 61 75 77 83 101 115 119 109 109 109 102 92 82 74 65 62 42 2 360 54 59 356 330 26 74 93 112 162 257 291 268 249 240 245 249 247 230 145 100 91 83 80 78 76 74 75 76
100 94 96 84 84 78 76 75 60 21 39 43 48 48 56 48 50 40 47 52 63 61 60 47 37 32 22 45 72 60 48 34 34 44 41 45 52 54 52 65 74 96 112 136 137 137 129 120 110 102 87 77 62 59 54 290 302 324 51 323 306 24 49 62 53 30 19 278 287 310 104 101 94 99 94 86 86 75 66 63 59 66 74 76 73
110 95 95 81 73 78 77 75 65 31 53 50 44 37 36 50 45 41 36 40 44 45 38 29 28 33 37 40 58 73 64 45 35 37 44 30 32 49 55 47 43 44 88 135 148 155 150 137 132 130 124 96 101 97 246 334 349 342 314 283 2 16 17 13 22 7 352 349 3 40 69 78 84 81 79 74 69 70 71 71 67 62 62 67 80
109 92 101 115 106 78 66 68 50 33 59 47 39 27 23 34 40 42 48 50 46 49 41 25 22 31 40 57 53 57 59 63 58 51 44 28 15 12 21 58 51 55 1 351 153 135 119 122 132 138 133 118 133 180 139 50 56 31 16 3 23 11 344 349 1 328 327 12 38 53 58 65 69 84 81 78 74 75 69 65 71 68 68 68 64
80 92 88 88 90 98 81 69 40 48 66 62 45 32 24 26 34 44 55 61 64 67 50 29 32 40 41 61 63 70 74 83 84 86 84 62 51 57 40 38 30 9 11 12 86 118 130 130 118 74 42 111 191 97 85 65 28 7 18 30 353 310 315 326 330 315 358 65 50 72 60 80 88 89 88 85 84 84 83 74 60 64 67 67 65
124 98 75 85 91 92 89 81 73 74 69 66 51 26 31 24 40 46 66 72 74 75 77 56 75 67 64 74 88 86 88 93 101 112 103 100 90 65 64 55 48 38 30 36 60 67 66 59 94 129 71 66 75 83 80 71 20 343 349 336 318 305 321 330 342 23 43 49 62 82 84 87 91 93 95 94 94 90 87 89 77 65 60 67 59